Time,TemperatureF,DewpointF,PressureIn,WindDirection,WindDirectionDegrees,WindSpeedMPH,WindSpeedGustMPH,Humidity,HourlyPrecipIn,Conditions,Clouds,dailyrainin,SolarRadiationWatts/m^2,SoftwareType,DateUTC
2013-05-07 00:01:00,55.9,54.5,29.91,NNE,29,0.0,0.0,95,0.00,RA,,0.00,0.0,WeatherDisplay:10.37,2013-05-07 04:01:00,
2013-05-07 00:06:00,56.0,54.6,29.91,NNE,30,0.0,0.0,95,0.00,RA,,0.00,0.0,WeatherDisplay:10.37,2013-05-07 04:06:00,
2013-05-07 00:11:00,56.0,54.3,29.91,NNE,29,0.0,0.0,94,0.00,SCT,,0.00,0.0,WeatherDisplay:10.37,2013-05-07 04:11:00,
2013-05-07 00:16:00,56.1,54.4,29.91,NNE,30,0.0,0.0,94,0.00,SCT,,0.00,0.0,WeatherDisplay:10.37,2013-05-07 04:16:00,
2013-05-07 00:21:00,56.2,54.5,29.91,NNE,29,0.0,0.0,94,0.00,SCT,,0.00,0.0,WeatherDisplay:10.37,2013-05-07 04:21:00,
2013-05-07 00:26:00,56.2,54.5,29.91,NNE,29,0.0,0.0,94,0.00,SCT,,0.00,0.0,WeatherDisplay:10.37,2013-05-07 04:26:00,
2013-05-07 00:31:00,56.3,54.3,29.91,NNE,30,0.0,0.0,93,0.00,SCT,,0.00,0.0,WeatherDisplay:10.37,2013-05-07 04:31:00,
2013-05-07 00:36:00,56.3,54.3,29.91,NNE,29,0.0,0.0,93,0.00,SCT,,0.00,0.0,WeatherDisplay:10.37,2013-05-07 04:36:00,
2013-05-07 00:41:00,56.2,53.9,29.91,NNE,30,0.0,0.0,92,0.00,SCT,,0.00,0.0,WeatherDisplay:10.37,2013-05-07 04:41:00,
2013-05-07 00:46:00,56.1,53.8,29.91,NNE,29,0.0,0.0,92,0.00,SCT,,0.00,0.0,WeatherDisplay:10.37,2013-05-07 04:46:00,
2013-05-07 00:51:00,56.1,53.8,29.91,NNE,29,0.0,0.0,92,0.00,SCT,,0.00,0.0,WeatherDisplay:10.37,2013-05-07 04:51:00,
2013-05-07 00:56:00,56.0,53.7,29.91,NNE,30,0.0,0.0,92,0.00,SCT,,0.00,0.0,WeatherDisplay:10.37,2013-05-07 04:56:00,
2013-05-07 01:01:00,56.0,53.7,29.91,NNE,30,0.0,0.0,92,0.00,SCT,,0.00,0.0,WeatherDisplay:10.37,2013-05-07 05:01:00,
2013-05-07 01:06:00,55.9,53.6,29.91,NNE,30,0.0,0.0,92,0.00,SCT,,0.00,0.0,WeatherDisplay:10.37,2013-05-07 05:06:00,
2013-05-07 01:11:00,55.8,53.5,29.91,NNE,29,0.0,0.0,92,0.00,SCT,,0.00,0.0,WeatherDisplay:10.37,2013-05-07 05:11:00,
2013-05-07 01:16:00,55.7,53.4,29.91,NNE,29,0.0,0.0,92,0.00,SCT,,0.00,0.0,WeatherDisplay:10.37,2013-05-07 05:16:00,
2013-05-07 01:21:00,55.6,53.3,29.91,NNE,30,0.0,0.0,92,0.00,SCT,,0.00,0.0,WeatherDisplay:10.37,2013-05-07 05:21:00,
2013-05-07 01:26:00,55.5,53.2,29.91,NNE,30,0.0,0.0,92,0.00,SCT,,0.00,0.0,WeatherDisplay:10.37,2013-05-07 05:26:00,
2013-05-07 01:31:00,55.3,53.0,29.91,NNE,30,0.0,0.0,92,0.00,SCT,,0.00,0.0,WeatherDisplay:10.37,2013-05-07 05:31:00,
2013-05-07 01:36:00,55.3,53.3,29.91,NNE,30,0.0,0.0,93,0.00,SCT,,0.00,0.0,WeatherDisplay:10.37,2013-05-07 05:36:00,
2013-05-07 01:41:00,55.2,53.2,29.91,NNE,30,0.0,0.0,93,0.00,SCT,,0.00,0.0,WeatherDisplay:10.37,2013-05-07 05:41:00,
2013-05-07 01:46:00,55.2,53.2,29.91,NNE,29,0.0,0.0,93,0.00,SCT,,0.00,0.0,WeatherDisplay:10.37,2013-05-07 05:46:00,
2013-05-07 01:51:00,55.2,53.2,29.91,NNE,29,0.0,0.0,93,0.00,SCT,,0.00,0.0,WeatherDisplay:10.37,2013-05-07 05:51:00,
2013-05-07 01:56:00,55.2,53.2,29.90,NNE,30,0.0,0.0,93,0.00,SCT,,0.00,0.0,WeatherDisplay:10.37,2013-05-07 05:56:00,
2013-05-07 02:01:00,55.2,53.2,29.90,NNE,29,0.0,0.0,93,0.00,BKN,,0.00,0.0,WeatherDisplay:10.37,2013-05-07 06:01:00,
2013-05-07 02:06:00,55.2,53.2,29.90,NNE,30,0.0,0.0,93,0.00,BKN,,0.00,0.0,WeatherDisplay:10.37,2013-05-07 06:06:00,
2013-05-07 02:11:00,55.3,53.3,29.90,NNE,29,0.0,0.0,93,0.00,BKN,,0.00,0.0,WeatherDisplay:10.37,2013-05-07 06:11:00,
2013-05-07 02:16:00,55.3,53.6,29.89,NNE,30,0.0,0.0,94,0.00,BKN,,0.00,0.0,WeatherDisplay:10.37,2013-05-07 06:16:00,
2013-05-07 02:21:00,55.3,53.6,29.89,NNE,30,0.0,0.0,94,0.00,BKN,,0.00,0.0,WeatherDisplay:10.37,2013-05-07 06:21:00,
2013-05-07 02:26:00,55.4,53.7,29.89,NNE,29,0.0,0.0,94,0.00,BKN,,0.00,0.0,WeatherDisplay:10.37,2013-05-07 06:26:00,
2013-05-07 02:31:00,55.5,53.8,29.89,NNE,30,0.0,0.0,94,0.00,BKN,,0.00,0.0,WeatherDisplay:10.37,2013-05-07 06:31:00,
2013-05-07 02:37:00,55.5,53.8,29.89,NNE,30,0.0,0.0,94,0.00,BKN,,0.00,0.0,WeatherDisplay:10.37,2013-05-07 06:37:00,
2013-05-07 02:42:00,55.6,54.2,29.89,NNE,29,0.0,0.0,95,0.00,BKN,,0.00,0.0,WeatherDisplay:10.37,2013-05-07 06:42:00,
2013-05-07 02:47:00,55.7,54.3,29.89,NNE,29,0.0,0.0,95,0.00,BKN,,0.00,0.0,WeatherDisplay:10.37,2013-05-07 06:47:00,
2013-05-07 02:52:00,55.7,54.0,29.89,NNE,29,0.0,0.0,94,0.00,BKN,,0.00,0.0,WeatherDisplay:10.37,2013-05-07 06:52:00,
2013-05-07 02:57:00,55.7,54.0,29.89,NNE,30,0.0,0.0,94,0.00,BKN,,0.00,0.0,WeatherDisplay:10.37,2013-05-07 06:57:00,
2013-05-07 03:02:00,55.6,53.9,29.89,NNE,30,0.0,0.0,94,0.00,BKN,,0.00,0.0,WeatherDisplay:10.37,2013-05-07 07:02:00,
2013-05-07 03:07:00,55.6,53.9,29.89,NNE,30,0.0,0.0,94,0.00,BKN,,0.00,0.0,WeatherDisplay:10.37,2013-05-07 07:07:00,
2013-05-07 03:12:00,55.6,53.9,29.89,NNE,30,0.0,0.0,94,0.00,BKN,,0.00,0.0,WeatherDisplay:10.37,2013-05-07 07:12:00,
2013-05-07 03:17:00,55.5,53.8,29.89,NNE,30,0.0,0.0,94,0.00,BKN,,0.00,0.0,WeatherDisplay:10.37,2013-05-07 07:17:00,
2013-05-07 03:22:00,55.4,53.7,29.89,NNE,30,0.0,0.0,94,0.00,BKN,,0.00,0.0,WeatherDisplay:10.37,2013-05-07 07:22:00,
2013-05-07 03:27:00,55.4,53.7,29.89,NNE,29,0.0,0.0,94,0.00,BKN,,0.00,0.0,WeatherDisplay:10.37,2013-05-07 07:27:00,
2013-05-07 03:32:00,55.3,53.6,29.89,NNE,30,0.0,0.0,94,0.00,BKN,,0.00,0.0,WeatherDisplay:10.37,2013-05-07 07:32:00,
2013-05-07 03:37:00,55.2,53.2,29.89,NNE,30,0.0,0.0,93,0.00,BKN,,0.00,0.0,WeatherDisplay:10.37,2013-05-07 07:37:00,
2013-05-07 03:42:00,55.1,53.1,29.89,NNE,30,0.0,0.0,93,0.00,BKN,,0.00,0.0,WeatherDisplay:10.37,2013-05-07 07:42:00,
2013-05-07 03:47:00,54.9,52.9,29.89,NNE,30,0.0,0.0,93,0.00,BKN,,0.00,0.0,WeatherDisplay:10.37,2013-05-07 07:47:00,
2013-05-07 03:52:00,54.8,53.1,29.89,NNE,29,0.0,0.0,94,0.00,BKN,,0.00,0.0,WeatherDisplay:10.37,2013-05-07 07:52:00,
2013-05-07 03:57:00,54.7,53.0,29.88,NNE,30,0.0,0.0,94,0.00,BKN,,0.00,0.0,WeatherDisplay:10.37,2013-05-07 07:57:00,
2013-05-07 04:02:00,54.6,52.9,29.88,NNE,30,0.0,0.0,94,0.00,BKN,,0.00,0.0,WeatherDisplay:10.37,2013-05-07 08:02:00,
2013-05-07 04:07:00,54.5,53.1,29.88,NNE,30,0.0,0.0,95,0.00,BKN,,0.00,0.0,WeatherDisplay:10.37,2013-05-07 08:07:00,
2013-05-07 04:12:00,54.4,53.0,29.88,NNE,30,0.0,0.0,95,0.00,BKN,,0.00,0.0,WeatherDisplay:10.37,2013-05-07 08:12:00,
2013-05-07 04:17:00,54.4,53.0,29.88,NNE,30,0.0,0.0,95,0.00,BKN,,0.00,0.0,WeatherDisplay:10.37,2013-05-07 08:17:00,
2013-05-07 04:22:00,54.2,52.8,29.89,NNE,29,0.0,0.0,95,0.00,BKN,,0.00,0.0,WeatherDisplay:10.37,2013-05-07 08:22:00,
2013-05-07 04:27:00,54.2,52.8,29.89,NNE,29,0.0,0.0,95,0.00,BKN,,0.00,0.0,WeatherDisplay:10.37,2013-05-07 08:27:00,
2013-05-07 04:32:00,54.1,52.7,29.88,NNE,29,0.0,0.0,95,0.00,BKN,,0.00,0.0,WeatherDisplay:10.37,2013-05-07 08:32:00,
2013-05-07 04:37:00,54.1,53.0,29.88,NNE,30,0.0,0.0,96,0.00,BKN,,0.00,0.0,WeatherDisplay:10.37,2013-05-07 08:37:00,
2013-05-07 04:42:00,54.1,53.0,29.88,NNE,30,0.0,0.0,96,0.00,BKN,,0.00,0.0,WeatherDisplay:10.37,2013-05-07 08:42:00,
2013-05-07 04:47:00,54.1,53.0,29.88,NNE,30,0.0,0.0,96,0.00,BKN,,0.00,0.0,WeatherDisplay:10.37,2013-05-07 08:47:00,
2013-05-07 04:52:00,54.1,53.0,29.88,NNE,29,0.0,0.0,96,0.00,BKN,,0.00,0.0,WeatherDisplay:10.37,2013-05-07 08:52:00,
2013-05-07 04:57:00,54.2,53.1,29.88,NNE,30,0.0,0.0,96,0.00,BKN,,0.00,0.0,WeatherDisplay:10.37,2013-05-07 08:57:00,
2013-05-07 05:02:00,54.2,53.1,29.88,NNE,29,0.0,0.0,96,0.00,SCT,,0.00,0.0,WeatherDisplay:10.37,2013-05-07 09:02:00,
2013-05-07 05:07:00,54.2,53.1,29.88,NNE,29,0.0,0.0,96,0.00,SCT,,0.00,0.0,WeatherDisplay:10.37,2013-05-07 09:07:00,
2013-05-07 05:12:00,54.1,53.0,29.88,NNE,30,0.0,0.0,96,0.00,SCT,,0.00,0.0,WeatherDisplay:10.37,2013-05-07 09:12:00,
2013-05-07 05:17:00,54.1,53.0,29.88,NNE,30,0.0,0.0,96,0.00,SCT,,0.00,0.0,WeatherDisplay:10.37,2013-05-07 09:17:00,
2013-05-07 05:22:00,54.1,53.0,29.88,NNE,30,0.0,0.0,96,0.00,SCT,,0.00,0.0,WeatherDisplay:10.37,2013-05-07 09:22:00,
2013-05-07 05:27:00,54.0,52.9,29.88,NNE,29,0.0,0.0,96,0.00,SCT,,0.00,0.0,WeatherDisplay:10.37,2013-05-07 09:27:00,
2013-05-07 05:32:00,53.9,52.8,29.88,NNE,30,0.0,0.0,96,0.00,SCT,,0.00,0.0,WeatherDisplay:10.37,2013-05-07 09:32:00,
2013-05-07 05:37:00,53.8,52.7,29.89,NNE,29,0.0,0.0,96,0.00,SCT,,0.00,0.0,WeatherDisplay:10.37,2013-05-07 09:37:00,
2013-05-07 05:42:00,53.6,52.5,29.89,NNE,30,0.0,0.0,96,0.00,SCT,,0.00,0.0,WeatherDisplay:10.37,2013-05-07 09:42:00,
2013-05-07 05:47:00,53.5,52.4,29.89,NNE,29,0.0,0.0,96,0.00,SCT,,0.00,0.0,WeatherDisplay:10.37,2013-05-07 09:47:00,
2013-05-07 05:52:00,53.3,52.2,29.89,NNE,29,0.0,0.0,96,0.00,SCT,,0.00,0.0,WeatherDisplay:10.37,2013-05-07 09:52:00,
2013-05-07 05:57:00,53.2,52.1,29.89,NNE,30,0.0,0.0,96,0.00,SCT,,0.00,0.0,WeatherDisplay:10.37,2013-05-07 09:57:00,
2013-05-07 06:02:00,53.1,52.0,29.89,NNE,29,0.0,0.0,96,0.00,SCT,,0.00,0.0,WeatherDisplay:10.37,2013-05-07 10:02:00,
2013-05-07 06:07:00,53.0,51.9,29.89,NNE,29,0.0,0.0,96,0.00,SCT,,0.00,0.0,WeatherDisplay:10.37,2013-05-07 10:07:00,
2013-05-07 06:12:00,52.9,51.8,29.89,NNE,30,0.0,0.0,96,0.00,SCT,,0.00,0.0,WeatherDisplay:10.37,2013-05-07 10:12:00,
2013-05-07 06:17:00,52.8,51.7,29.89,NNE,30,0.0,0.0,96,0.00,SCT,,0.00,0.0,WeatherDisplay:10.37,2013-05-07 10:17:00,
2013-05-07 06:22:00,52.8,51.7,29.90,NNE,31,0.0,0.0,96,0.00,SCT,,0.00,0.0,WeatherDisplay:10.37,2013-05-07 10:22:00,
2013-05-07 06:27:00,52.8,52.0,29.90,NNE,30,0.0,0.0,97,0.00,SCT,,0.00,0.0,WeatherDisplay:10.37,2013-05-07 10:27:00,
2013-05-07 06:32:00,52.7,51.9,29.90,NNE,29,0.0,0.0,97,0.00,SCT,,0.00,0.0,WeatherDisplay:10.37,2013-05-07 10:32:00,
2013-05-07 06:37:00,52.7,51.9,29.90,NNE,29,0.0,0.0,97,0.00,SCT,,0.00,0.0,WeatherDisplay:10.37,2013-05-07 10:37:00,
2013-05-07 06:42:00,52.7,51.9,29.90,NNE,29,0.0,0.0,97,0.00,SCT,,0.00,0.0,WeatherDisplay:10.37,2013-05-07 10:42:00,
2013-05-07 06:47:00,52.6,51.8,29.90,NNE,29,0.0,0.0,97,0.00,SCT,,0.00,0.0,WeatherDisplay:10.37,2013-05-07 10:47:00,
2013-05-07 06:52:00,52.6,51.8,29.90,NNE,31,0.0,0.0,97,0.00,SCT,,0.00,0.0,WeatherDisplay:10.37,2013-05-07 10:52:00,
2013-05-07 06:57:00,52.6,51.8,29.90,NNE,30,0.0,0.0,97,0.00,SCT,,0.00,0.0,WeatherDisplay:10.37,2013-05-07 10:57:00,
2013-05-07 07:02:00,52.6,51.8,29.90,NNE,30,0.0,0.0,97,0.00,BKN,,0.00,0.0,WeatherDisplay:10.37,2013-05-07 11:02:00,
2013-05-07 07:07:00,52.8,52.0,29.91,NNE,30,0.0,0.0,97,0.00,BKN,,0.00,0.0,WeatherDisplay:10.37,2013-05-07 11:07:00,
2013-05-07 07:12:00,52.9,52.4,29.91,NNE,30,0.0,0.0,98,0.00,BKN,,0.00,0.0,WeatherDisplay:10.37,2013-05-07 11:12:00,
2013-05-07 07:17:00,53.0,52.5,29.91,NNE,30,0.0,0.0,98,0.00,BKN,,0.00,0.0,WeatherDisplay:10.37,2013-05-07 11:17:00,
2013-05-07 07:22:00,53.3,52.8,29.91,NNE,31,0.0,0.0,98,0.00,BKN,,0.00,0.0,WeatherDisplay:10.37,2013-05-07 11:22:00,
2013-05-07 07:27:00,53.5,52.9,29.91,NNE,29,0.0,0.0,98,0.00,BKN,,0.00,0.0,WeatherDisplay:10.37,2013-05-07 11:27:00,
2013-05-07 07:32:00,54.0,53.4,29.92,NNE,29,0.0,0.0,98,0.00,BKN,,0.00,0.0,WeatherDisplay:10.37,2013-05-07 11:32:00,
2013-05-07 07:37:00,54.6,54.3,29.92,NNE,29,0.0,0.0,99,0.00,BKN,,0.00,0.0,WeatherDisplay:10.37,2013-05-07 11:37:00,
2013-05-07 07:42:00,55.1,54.8,29.92,NNE,29,0.0,0.0,99,0.00,BKN,,0.00,0.0,WeatherDisplay:10.37,2013-05-07 11:42:00,
2013-05-07 07:47:00,55.8,55.5,29.92,NNE,29,0.0,0.0,99,0.00,BKN,,0.00,0.0,WeatherDisplay:10.37,2013-05-07 11:47:00,
2013-05-07 07:52:00,56.2,55.9,29.92,NNE,30,0.0,0.0,99,0.00,BKN,,0.00,0.0,WeatherDisplay:10.37,2013-05-07 11:52:00,
2013-05-07 07:57:00,56.7,56.4,29.92,NNE,30,0.0,0.0,99,0.00,BKN,,0.00,0.0,WeatherDisplay:10.37,2013-05-07 11:57:00,
2013-05-07 08:02:00,57.2,56.9,29.92,NNE,30,0.0,0.0,99,0.00,OVC,,0.00,0.0,WeatherDisplay:10.37,2013-05-07 12:02:00,
2013-05-07 08:07:00,57.8,57.5,29.92,NNE,29,1.2,0.0,99,0.00,OVC,,0.00,0.0,WeatherDisplay:10.37,2013-05-07 12:07:00,
2013-05-07 08:12:00,58.3,58.0,29.92,NNE,29,0.0,0.0,99,0.00,OVC,,0.00,0.0,WeatherDisplay:10.37,2013-05-07 12:12:00,
2013-05-07 08:17:00,58.6,58.3,29.92,NNE,30,0.0,0.0,99,0.00,OVC,,0.00,0.0,WeatherDisplay:10.37,2013-05-07 12:17:00,
2013-05-07 08:22:00,58.9,57.8,29.92,NNE,30,0.0,0.0,96,0.00,OVC,,0.00,0.0,WeatherDisplay:10.37,2013-05-07 12:22:00,
2013-05-07 08:27:00,59.5,57.2,29.92,NNE,30,0.0,0.0,92,0.00,OVC,,0.00,0.0,WeatherDisplay:10.37,2013-05-07 12:27:00,
2013-05-07 08:32:00,60.3,57.0,29.92,NNE,31,1.2,1.2,89,0.00,OVC,,0.00,0.0,WeatherDisplay:10.37,2013-05-07 12:32:00,
2013-05-07 08:37:00,60.9,57.0,29.92,WNW,297,1.2,1.2,87,0.00,OVC,,0.00,0.0,WeatherDisplay:10.37,2013-05-07 12:37:00,
2013-05-07 08:42:00,61.5,56.9,29.93,WNW,297,1.2,1.2,85,0.00,OVC,,0.00,0.0,WeatherDisplay:10.37,2013-05-07 12:42:00,
2013-05-07 08:47:00,62.4,57.8,29.93,WNW,297,2.3,2.3,85,0.00,OVC,,0.00,0.0,WeatherDisplay:10.37,2013-05-07 12:47:00,
2013-05-07 08:52:00,62.9,57.3,29.93,WNW,297,2.3,2.3,82,0.00,OVC,,0.00,0.0,WeatherDisplay:10.37,2013-05-07 12:52:00,
2013-05-07 08:57:00,63.1,57.2,29.93,WSW,257,1.2,1.2,81,0.00,OVC,,0.00,0.0,WeatherDisplay:10.37,2013-05-07 12:57:00,
2013-05-07 09:02:00,63.3,57.0,29.93,West,264,2.3,0.0,80,0.00,BKN,,0.00,0.0,WeatherDisplay:10.37,2013-05-07 13:02:00,
2013-05-07 09:07:00,63.2,56.6,29.93,SW,221,1.2,0.0,79,0.00,BKN,,0.00,0.0,WeatherDisplay:10.37,2013-05-07 13:07:00,
2013-05-07 09:12:00,63.0,56.4,29.94,SW,220,1.2,0.0,79,0.00,BKN,,0.00,0.0,WeatherDisplay:10.37,2013-05-07 13:12:00,
2013-05-07 09:17:00,62.8,57.6,29.94,SW,220,1.2,0.0,83,0.00,BKN,,0.00,0.0,WeatherDisplay:10.37,2013-05-07 13:17:00,
2013-05-07 09:22:00,62.6,57.4,29.94,SW,220,1.2,0.0,83,0.00,BKN,,0.00,0.0,WeatherDisplay:10.37,2013-05-07 13:22:00,
2013-05-07 09:27:00,62.3,57.4,29.94,SW,221,0.0,0.0,84,0.00,BKN,,0.00,0.0,WeatherDisplay:10.37,2013-05-07 13:27:00,
2013-05-07 09:32:00,62.0,57.1,29.94,SW,220,0.0,0.0,84,0.00,BKN,,0.00,0.0,WeatherDisplay:10.37,2013-05-07 13:32:00,
2013-05-07 09:37:00,61.6,57.4,29.95,SW,220,0.0,0.0,86,0.00,BKN,,0.00,0.0,WeatherDisplay:10.37,2013-05-07 13:37:00,
2013-05-07 09:42:00,61.2,57.6,29.94,SW,221,0.0,0.0,88,0.01,RA,,0.01,0.0,WeatherDisplay:10.37,2013-05-07 13:42:00,
2013-05-07 09:47:00,60.9,57.6,29.94,SW,221,0.0,0.0,89,0.03,RA,,0.03,0.0,WeatherDisplay:10.37,2013-05-07 13:47:00,
2013-05-07 09:52:00,60.5,57.9,29.94,SW,220,0.0,0.0,91,0.03,RA,,0.03,0.0,WeatherDisplay:10.37,2013-05-07 13:52:00,
2013-05-07 09:57:00,60.2,57.9,29.95,SW,220,0.0,0.0,92,0.03,BKN,,0.03,0.0,WeatherDisplay:10.37,2013-05-07 13:57:00,
2013-05-07 10:02:00,59.9,57.6,29.95,SW,220,0.0,0.0,92,0.04,RA,,0.04,0.0,WeatherDisplay:10.37,2013-05-07 14:02:00,
2013-05-07 10:07:00,59.7,57.7,29.95,SW,224,0.0,0.1,93,0.04,RA,,0.04,0.0,WeatherDisplay:10.37,2013-05-07 14:07:00,
2013-05-07 10:12:00,59.8,58.1,29.95,SW,225,0.0,0.0,94,0.04,BKN,,0.04,0.0,WeatherDisplay:10.37,2013-05-07 14:12:00,
2013-05-07 10:17:00,60.1,58.7,29.94,NW,326,1.2,1.2,95,0.04,OVC,,0.04,0.0,WeatherDisplay:10.37,2013-05-07 14:17:00,
2013-05-07 10:22:00,60.4,58.1,29.94,North,354,4.6,4.6,92,0.04,OVC,,0.04,0.0,WeatherDisplay:10.37,2013-05-07 14:22:00,
2013-05-07 10:27:00,60.6,58.6,29.94,North,4,3.5,3.5,93,0.04,OVC,,0.04,0.0,WeatherDisplay:10.37,2013-05-07 14:27:00,
2013-05-07 10:32:00,61.1,58.8,29.94,NE,48,1.2,1.2,92,0.04,OVC,,0.04,0.0,WeatherDisplay:10.37,2013-05-07 14:32:00,
2013-05-07 10:37:00,61.4,58.1,29.95,NE,48,0.0,0.0,89,0.04,OVC,,0.04,0.0,WeatherDisplay:10.37,2013-05-07 14:37:00,
2013-05-07 10:42:00,61.7,58.4,29.95,NE,48,1.2,1.2,89,0.03,OVC,,0.04,0.0,WeatherDisplay:10.37,2013-05-07 14:42:00,
2013-05-07 10:47:00,61.9,58.3,29.95,NE,49,1.2,0.0,88,0.01,OVC,,0.04,0.0,WeatherDisplay:10.37,2013-05-07 14:47:00,
2013-05-07 10:52:00,62.0,59.0,29.95,NE,48,1.2,1.2,90,0.01,OVC,,0.04,0.0,WeatherDisplay:10.37,2013-05-07 14:52:00,
2013-05-07 10:57:00,61.9,58.6,29.95,NE,50,2.0,2.0,89,0.01,OVC,,0.04,0.0,WeatherDisplay:10.37,2013-05-07 14:57:00,
2013-05-07 11:02:00,61.9,58.9,29.95,East,84,2.3,2.3,90,0.00,BKN,,0.04,0.0,WeatherDisplay:10.37,2013-05-07 15:02:00,
2013-05-07 11:07:00,61.8,58.2,29.95,East,85,1.2,0.0,88,0.00,BKN,,0.04,0.0,WeatherDisplay:10.37,2013-05-07 15:07:00,
2013-05-07 11:12:00,61.6,58.3,29.95,East,84,0.0,0.0,89,0.00,BKN,,0.04,0.0,WeatherDisplay:10.37,2013-05-07 15:12:00,
2013-05-07 11:17:00,61.6,58.9,29.95,East,84,0.0,0.0,91,0.00,BKN,,0.04,0.0,WeatherDisplay:10.37,2013-05-07 15:17:00,
2013-05-07 11:22:00,61.6,58.9,29.95,East,85,0.0,0.0,91,0.00,BKN,,0.04,0.0,WeatherDisplay:10.37,2013-05-07 15:22:00,
2013-05-07 11:27:00,61.6,58.6,29.95,East,84,1.2,1.2,90,0.00,BKN,,0.04,0.0,WeatherDisplay:10.37,2013-05-07 15:27:00,
2013-05-07 11:32:00,61.6,58.6,29.95,East,85,2.3,2.3,90,0.00,BKN,,0.04,0.0,WeatherDisplay:10.37,2013-05-07 15:32:00,
2013-05-07 11:37:00,61.7,58.7,29.95,East,85,0.0,0.0,90,0.00,BKN,,0.04,0.0,WeatherDisplay:10.37,2013-05-07 15:37:00,
2013-05-07 11:42:00,62.2,58.6,29.95,East,85,1.2,0.0,88,0.00,BKN,,0.04,0.0,WeatherDisplay:10.37,2013-05-07 15:42:00,
2013-05-07 11:47:00,62.7,59.4,29.94,NNE,31,3.5,3.5,89,0.00,BKN,,0.04,0.0,WeatherDisplay:10.37,2013-05-07 15:47:00,
2013-05-07 11:52:00,63.6,60.0,29.94,ESE,121,2.3,2.3,88,0.00,BKN,,0.04,0.0,WeatherDisplay:10.37,2013-05-07 15:52:00,
2013-05-07 11:57:00,64.1,59.2,29.94,SSE,152,3.5,3.5,84,0.00,BKN,,0.04,0.0,WeatherDisplay:10.37,2013-05-07 15:57:00,
2013-05-07 12:02:00,64.5,59.6,29.94,SSE,155,2.0,2.0,84,0.00,BKN,,0.04,0.0,WeatherDisplay:10.37,2013-05-07 16:02:00,
2013-05-07 12:07:00,64.6,59.7,29.94,SSE,161,0.0,0.0,84,0.00,BKN,,0.04,0.0,WeatherDisplay:10.37,2013-05-07 16:07:00,
2013-05-07 12:12:00,64.9,59.3,29.93,NNE,14,3.5,3.5,82,0.00,BKN,,0.04,0.0,WeatherDisplay:10.37,2013-05-07 16:12:00,
2013-05-07 12:17:00,65.1,59.5,29.93,NNE,12,2.3,2.3,82,0.00,BKN,,0.04,0.0,WeatherDisplay:10.37,2013-05-07 16:17:00,
2013-05-07 12:22:00,65.2,59.6,29.93,NNE,12,0.0,0.0,82,0.00,BKN,,0.04,0.0,WeatherDisplay:10.37,2013-05-07 16:22:00,
2013-05-07 12:27:00,65.1,58.8,29.93,ENE,77,2.3,2.3,80,0.00,BKN,,0.04,0.0,WeatherDisplay:10.37,2013-05-07 16:27:00,
2013-05-07 12:32:00,65.0,59.4,29.93,East,79,0.0,0.0,82,0.00,BKN,,0.04,0.0,WeatherDisplay:10.37,2013-05-07 16:32:00,
2013-05-07 12:37:00,64.8,59.2,29.93,East,81,1.2,1.2,82,0.00,BKN,,0.04,0.0,WeatherDisplay:10.37,2013-05-07 16:37:00,
2013-05-07 12:42:00,64.7,59.4,29.92,ENE,62,2.3,2.3,83,0.00,BKN,,0.04,0.0,WeatherDisplay:10.37,2013-05-07 16:42:00,
2013-05-07 12:47:00,64.7,59.4,29.92,North,350,3.0,3.0,83,0.00,BKN,,0.04,0.0,WeatherDisplay:10.37,2013-05-07 16:47:00,
2013-05-07 12:52:00,64.7,59.1,29.92,NNE,29,3.5,3.5,82,0.00,BKN,,0.04,0.0,WeatherDisplay:10.37,2013-05-07 16:52:00,
2013-05-07 12:57:00,64.7,58.7,29.92,North,354,2.3,2.3,81,0.00,BKN,,0.04,0.0,WeatherDisplay:10.37,2013-05-07 16:57:00,
2013-05-07 13:02:00,64.6,58.6,29.92,North,350,3.5,3.5,81,0.00,-RA,,0.04,0.0,WeatherDisplay:10.37,2013-05-07 17:02:00,
2013-05-07 13:07:00,64.3,59.4,29.92,North,354,2.0,2.0,84,0.00,-RA,,0.04,0.0,WeatherDisplay:10.37,2013-05-07 17:07:00,
2013-05-07 13:12:00,64.0,59.4,29.93,ESE,114,0.0,1.0,85,0.00,-RA,,0.04,0.0,WeatherDisplay:10.37,2013-05-07 17:12:00,
2013-05-07 13:17:00,64.0,59.1,29.92,South,170,3.5,3.5,84,0.00,-RA,,0.04,0.0,WeatherDisplay:10.37,2013-05-07 17:17:00,
2013-05-07 13:22:00,64.7,59.8,29.92,South,184,6.9,6.9,84,0.00,-RA,,0.04,0.0,WeatherDisplay:10.37,2013-05-07 17:22:00,
2013-05-07 13:27:00,65.7,59.7,29.92,SSE,155,6.9,6.9,81,0.00,-RA,,0.04,0.0,WeatherDisplay:10.37,2013-05-07 17:27:00,
2013-05-07 13:32:00,66.8,60.8,29.92,SSW,210,6.9,6.9,81,0.00,-RA,,0.04,0.0,WeatherDisplay:10.37,2013-05-07 17:32:00,
2013-05-07 13:37:00,68.1,61.7,29.91,SSE,158,5.0,5.0,80,0.00,-RA,,0.04,0.0,WeatherDisplay:10.37,2013-05-07 17:37:00,
2013-05-07 13:42:00,68.8,60.9,29.91,South,190,4.6,4.6,76,0.00,-RA,,0.04,0.0,WeatherDisplay:10.37,2013-05-07 17:42:00,
2013-05-07 13:47:00,69.1,61.9,29.91,SSE,161,3.5,3.5,78,0.00,-RA,,0.04,0.0,WeatherDisplay:10.37,2013-05-07 17:47:00,
2013-05-07 13:52:00,70.0,61.7,29.91,South,177,1.2,1.2,75,0.00,-RA,,0.04,0.0,WeatherDisplay:10.37,2013-05-07 17:52:00,
2013-05-07 13:57:00,70.6,61.5,29.91,SSW,201,3.5,3.5,73,0.00,-RA,,0.04,0.0,WeatherDisplay:10.37,2013-05-07 17:57:00,
2013-05-07 14:02:00,71.4,62.3,29.91,South,180,4.6,4.6,73,0.00,BKN,,0.04,0.0,WeatherDisplay:10.37,2013-05-07 18:02:00,
2013-05-07 14:07:00,71.9,60.8,29.91,South,181,10.4,10.4,68,0.00,BKN,,0.04,0.0,WeatherDisplay:10.37,2013-05-07 18:07:00,
2013-05-07 14:12:00,71.8,61.1,29.90,SW,224,3.5,3.5,69,0.00,BKN,,0.04,0.0,WeatherDisplay:10.37,2013-05-07 18:12:00,
2013-05-07 14:17:00,72.0,60.9,29.90,West,276,3.5,3.5,68,0.00,BKN,,0.04,0.0,WeatherDisplay:10.37,2013-05-07 18:17:00,
2013-05-07 14:22:00,71.5,60.8,29.90,SSE,154,5.8,5.8,69,0.00,BKN,,0.04,0.0,WeatherDisplay:10.37,2013-05-07 18:22:00,
2013-05-07 14:27:00,70.7,60.0,29.90,South,176,6.9,6.9,69,0.00,BKN,,0.04,0.0,WeatherDisplay:10.37,2013-05-07 18:27:00,
2013-05-07 14:32:00,70.7,61.6,29.90,South,179,3.5,3.5,73,0.00,BKN,,0.04,0.0,WeatherDisplay:10.37,2013-05-07 18:32:00,
2013-05-07 14:37:00,71.6,61.3,29.90,South,191,3.5,3.5,70,0.00,BKN,,0.04,0.0,WeatherDisplay:10.37,2013-05-07 18:37:00,
2013-05-07 14:42:00,72.1,61.8,29.90,SSW,204,2.3,2.3,70,0.00,BKN,,0.04,0.0,WeatherDisplay:10.37,2013-05-07 18:42:00,
2013-05-07 14:47:00,72.3,61.1,29.90,SSW,212,3.5,3.5,68,0.00,BKN,,0.04,0.0,WeatherDisplay:10.37,2013-05-07 18:47:00,
2013-05-07 14:52:00,71.8,60.2,29.90,SSE,150,6.9,6.9,67,0.00,BKN,,0.04,0.0,WeatherDisplay:10.37,2013-05-07 18:52:00,
2013-05-07 14:57:00,71.7,60.6,29.90,SSW,202,3.5,3.5,68,0.00,BKN,,0.04,0.0,WeatherDisplay:10.37,2013-05-07 18:57:00,
2013-05-07 15:02:00,71.2,60.1,29.90,SSW,195,8.1,8.1,68,0.00,BKN,,0.04,0.0,WeatherDisplay:10.37,2013-05-07 19:02:00,
2013-05-07 15:07:00,70.4,59.7,29.90,SW,214,4.6,4.6,69,0.00,BKN,,0.04,0.0,WeatherDisplay:10.37,2013-05-07 19:07:00,
2013-05-07 15:12:00,70.2,60.0,29.89,SW,226,8.1,8.1,70,0.00,BKN,,0.04,0.0,WeatherDisplay:10.37,2013-05-07 19:12:00,
2013-05-07 15:17:00,70.6,60.3,29.90,SSW,193,4.6,4.6,70,0.00,BKN,,0.04,0.0,WeatherDisplay:10.37,2013-05-07 19:17:00,
2013-05-07 15:22:00,70.5,59.4,29.89,SSW,202,8.1,8.1,68,0.00,BKN,,0.04,0.0,WeatherDisplay:10.37,2013-05-07 19:22:00,
2013-05-07 15:27:00,69.8,59.6,29.90,SW,236,4.6,4.6,70,0.00,BKN,,0.04,0.0,WeatherDisplay:10.37,2013-05-07 19:27:00,
2013-05-07 15:32:00,69.4,60.0,29.90,SSW,204,2.3,2.3,72,0.00,BKN,,0.04,0.0,WeatherDisplay:10.37,2013-05-07 19:32:00,
2013-05-07 15:37:00,69.2,59.8,29.89,WSW,257,2.3,2.3,72,0.00,BKN,,0.04,0.0,WeatherDisplay:10.37,2013-05-07 19:37:00,
2013-05-07 15:42:00,68.9,59.5,29.89,SW,215,3.5,3.5,72,0.00,BKN,,0.04,0.0,WeatherDisplay:10.37,2013-05-07 19:42:00,
2013-05-07 15:47:00,68.9,59.5,29.89,SSW,195,3.5,3.5,72,0.00,BKN,,0.04,0.0,WeatherDisplay:10.37,2013-05-07 19:47:00,
2013-05-07 15:52:00,69.2,59.4,29.89,South,191,2.3,2.6,71,0.00,BKN,,0.04,0.0,WeatherDisplay:10.37,2013-05-07 19:52:00,
2013-05-07 15:57:00,69.6,60.6,29.89,SSW,210,8.1,8.1,73,0.00,BKN,,0.04,0.0,WeatherDisplay:10.37,2013-05-07 19:57:00,
2013-05-07 16:02:00,70.0,60.2,29.89,SE,136,6.9,6.9,71,0.00,BKN,,0.04,0.0,WeatherDisplay:10.37,2013-05-07 20:02:00,
2013-05-07 16:07:00,70.2,60.7,29.89,SSW,209,8.1,8.1,72,0.00,BKN,,0.04,0.0,WeatherDisplay:10.37,2013-05-07 20:07:00,
2013-05-07 16:12:00,70.0,60.6,29.89,SSW,201,4.6,4.6,72,0.00,BKN,,0.04,0.0,WeatherDisplay:10.37,2013-05-07 20:12:00,
2013-05-07 16:17:00,69.9,60.5,29.89,SSW,202,4.6,4.6,72,0.00,BKN,,0.04,0.0,WeatherDisplay:10.37,2013-05-07 20:17:00,
2013-05-07 16:22:00,69.7,58.7,29.89,SSW,196,3.5,3.5,68,0.00,BKN,,0.04,0.0,WeatherDisplay:10.37,2013-05-07 20:22:00,
2013-05-07 16:27:00,69.4,59.2,29.89,SW,219,2.3,2.3,70,0.00,BKN,,0.04,0.0,WeatherDisplay:10.37,2013-05-07 20:27:00,
2013-05-07 16:32:00,69.2,59.4,29.89,South,181,4.6,4.6,71,0.00,BKN,,0.04,0.0,WeatherDisplay:10.37,2013-05-07 20:32:00,
2013-05-07 16:37:00,69.0,58.0,29.89,SSW,197,3.5,3.5,68,0.00,BKN,,0.04,0.0,WeatherDisplay:10.37,2013-05-07 20:37:00,
2013-05-07 16:42:00,68.7,58.1,29.89,South,173,2.3,2.3,69,0.00,BKN,,0.04,0.0,WeatherDisplay:10.37,2013-05-07 20:42:00,
2013-05-07 16:47:00,68.2,58.0,29.89,South,174,2.3,2.3,70,0.00,BKN,,0.04,0.0,WeatherDisplay:10.37,2013-05-07 20:47:00,
2013-05-07 16:52:00,67.7,58.0,29.89,NNE,16,1.2,1.2,71,0.00,BKN,,0.04,0.0,WeatherDisplay:10.37,2013-05-07 20:52:00,
2013-05-07 16:57:00,67.4,58.8,29.89,NNE,16,2.3,2.3,74,0.00,BKN,,0.04,0.0,WeatherDisplay:10.37,2013-05-07 20:57:00,
2013-05-07 17:02:00,67.2,58.6,29.89,South,178,3.5,3.5,74,0.00,BKN,,0.04,0.0,WeatherDisplay:10.37,2013-05-07 21:02:00,
2013-05-07 17:07:00,67.3,58.3,29.89,SSW,197,3.5,3.5,73,0.00,BKN,,0.04,0.0,WeatherDisplay:10.37,2013-05-07 21:07:00,
2013-05-07 17:12:00,67.5,58.9,29.89,SW,215,1.2,1.2,74,0.00,BKN,,0.04,0.0,WeatherDisplay:10.37,2013-05-07 21:12:00,
2013-05-07 17:17:00,67.7,59.1,29.89,South,177,2.3,2.3,74,0.00,BKN,,0.04,0.0,WeatherDisplay:10.37,2013-05-07 21:17:00,
2013-05-07 17:22:00,67.9,58.5,29.89,SW,214,3.5,3.5,72,0.00,BKN,,0.04,0.0,WeatherDisplay:10.37,2013-05-07 21:22:00,
2013-05-07 17:27:00,68.3,59.3,29.89,SE,146,1.2,1.2,73,0.00,BKN,,0.04,0.0,WeatherDisplay:10.37,2013-05-07 21:27:00,
2013-05-07 17:32:00,68.5,59.1,29.89,SSW,193,1.2,1.2,72,0.00,BKN,,0.04,0.0,WeatherDisplay:10.37,2013-05-07 21:32:00,
2013-05-07 17:37:00,68.6,59.2,29.89,South,176,4.6,4.6,72,0.00,BKN,,0.04,0.0,WeatherDisplay:10.37,2013-05-07 21:37:00,
2013-05-07 17:42:00,68.5,59.1,29.89,WSW,241,2.3,2.3,72,0.00,RA,,0.04,0.0,WeatherDisplay:10.37,2013-05-07 21:42:00,
2013-05-07 17:47:00,68.1,58.3,29.89,SW,223,2.3,2.3,71,0.00,RA,,0.04,0.0,WeatherDisplay:10.37,2013-05-07 21:47:00,
2013-05-07 17:52:00,67.9,58.5,29.89,SSE,161,2.3,2.3,72,0.00,BKN,,0.04,0.0,WeatherDisplay:10.37,2013-05-07 21:52:00,
2013-05-07 17:57:00,67.6,57.9,29.89,South,172,4.6,4.6,71,0.00,BKN,,0.04,0.0,WeatherDisplay:10.37,2013-05-07 21:57:00,
2013-05-07 18:02:00,67.2,57.5,29.89,South,189,5.8,5.8,71,0.00,BKN,,0.04,0.0,WeatherDisplay:10.37,2013-05-07 22:02:00,
2013-05-07 18:07:00,66.9,58.0,29.89,South,185,1.2,1.2,73,0.00,BKN,,0.04,0.0,WeatherDisplay:10.37,2013-05-07 22:07:00,
2013-05-07 18:12:00,66.7,58.1,29.89,South,174,3.5,3.5,74,0.00,BKN,,0.04,0.0,WeatherDisplay:10.37,2013-05-07 22:12:00,
2013-05-07 18:17:00,66.6,58.4,29.89,SSW,210,2.3,2.3,75,0.00,BKN,,0.04,0.0,WeatherDisplay:10.37,2013-05-07 22:17:00,
2013-05-07 18:22:00,66.8,58.6,29.89,South,189,2.3,2.3,75,0.00,BKN,,0.04,0.0,WeatherDisplay:10.37,2013-05-07 22:22:00,
2013-05-07 18:27:00,66.8,58.6,29.90,South,189,1.2,1.2,75,0.00,BKN,,0.04,0.0,WeatherDisplay:10.37,2013-05-07 22:27:00,
2013-05-07 18:32:00,66.8,58.6,29.89,South,174,3.5,3.5,75,0.00,BKN,,0.04,0.0,WeatherDisplay:10.37,2013-05-07 22:32:00,
2013-05-07 18:37:00,66.7,58.5,29.90,South,174,1.2,1.2,75,0.00,BKN,,0.04,0.0,WeatherDisplay:10.37,2013-05-07 22:37:00,
2013-05-07 18:42:00,66.5,58.3,29.90,South,174,1.2,1.2,75,0.00,BKN,,0.04,0.0,WeatherDisplay:10.37,2013-05-07 22:42:00,
2013-05-07 18:47:00,66.3,58.5,29.90,South,183,3.5,3.5,76,0.00,BKN,,0.04,0.0,WeatherDisplay:10.37,2013-05-07 22:47:00,
2013-05-07 18:52:00,66.2,58.8,29.90,South,187,2.3,2.3,77,0.00,BKN,,0.04,0.0,WeatherDisplay:10.37,2013-05-07 22:52:00,
2013-05-07 18:57:00,66.3,58.9,29.90,SSE,151,2.3,2.3,77,0.00,BKN,,0.04,0.0,WeatherDisplay:10.37,2013-05-07 22:57:00,
2013-05-07 19:02:00,66.3,59.2,29.90,South,184,1.2,1.2,78,0.00,BKN,,0.04,0.0,WeatherDisplay:10.37,2013-05-07 23:02:00,
2013-05-07 19:07:00,66.2,59.5,29.90,South,187,3.5,3.5,79,0.00,BKN,,0.04,0.0,WeatherDisplay:10.37,2013-05-07 23:07:00,
2013-05-07 19:12:00,66.1,59.4,29.90,South,186,1.2,1.2,79,0.00,BKN,,0.04,0.0,WeatherDisplay:10.37,2013-05-07 23:12:00,
2013-05-07 19:17:00,65.8,59.5,29.91,SSW,199,2.3,2.3,80,0.00,BKN,,0.04,0.0,WeatherDisplay:10.37,2013-05-07 23:17:00,
2013-05-07 19:22:00,65.6,59.3,29.91,SSW,199,1.2,1.2,80,0.00,BKN,,0.04,0.0,WeatherDisplay:10.37,2013-05-07 23:22:00,
2013-05-07 19:27:00,65.4,59.1,29.91,SSE,149,1.2,1.2,80,0.00,BKN,,0.04,0.0,WeatherDisplay:10.37,2013-05-07 23:27:00,
2013-05-07 19:32:00,65.2,59.2,29.91,SSE,149,0.0,0.0,81,0.00,BKN,,0.04,0.0,WeatherDisplay:10.37,2013-05-07 23:32:00,
2013-05-07 19:37:00,65.0,59.4,29.91,SSE,150,0.0,0.0,82,0.00,BKN,,0.04,0.0,WeatherDisplay:10.37,2013-05-07 23:37:00,
2013-05-07 19:42:00,64.8,59.2,29.92,SSE,150,1.2,0.0,82,0.00,BKN,,0.04,0.0,WeatherDisplay:10.37,2013-05-07 23:42:00,
2013-05-07 19:47:00,64.7,59.4,29.92,SSE,149,2.3,0.0,83,0.00,BKN,,0.04,0.0,WeatherDisplay:10.37,2013-05-07 23:47:00,
2013-05-07 19:52:00,64.6,59.3,29.92,SSE,150,1.2,1.2,83,0.00,BKN,,0.04,0.0,WeatherDisplay:10.37,2013-05-07 23:52:00,
2013-05-07 19:57:00,64.4,59.1,29.92,SSE,150,1.2,0.0,83,0.00,BKN,,0.04,0.0,WeatherDisplay:10.37,2013-05-07 23:57:00,
2013-05-07 20:02:00,64.3,59.4,29.92,SSE,149,1.2,1.2,84,0.00,BKN,,0.04,0.0,WeatherDisplay:10.37,2013-05-08 00:02:00,
2013-05-07 20:07:00,64.1,59.2,29.93,SSE,149,0.0,0.0,84,0.00,BKN,,0.04,0.0,WeatherDisplay:10.37,2013-05-08 00:07:00,
2013-05-07 20:12:00,63.8,59.2,29.93,SSE,150,0.0,0.0,85,0.00,BKN,,0.04,0.0,WeatherDisplay:10.37,2013-05-08 00:12:00,
2013-05-07 20:17:00,63.5,59.2,29.93,SSE,149,0.0,0.0,86,0.00,BKN,,0.04,0.0,WeatherDisplay:10.37,2013-05-08 00:17:00,
2013-05-07 20:22:00,63.2,58.9,29.93,SSE,149,0.0,0.0,86,0.00,BKN,,0.04,0.0,WeatherDisplay:10.37,2013-05-08 00:22:00,
2013-05-07 20:27:00,63.1,59.2,29.93,SSE,150,0.0,0.0,87,0.00,BKN,,0.04,0.0,WeatherDisplay:10.37,2013-05-08 00:27:00,
2013-05-07 20:32:00,62.9,59.3,29.93,SSE,149,0.0,0.0,88,0.00,BKN,,0.04,0.0,WeatherDisplay:10.37,2013-05-08 00:32:00,
2013-05-07 20:37:00,62.8,59.2,29.93,SSE,149,0.0,0.0,88,0.00,BKN,,0.04,0.0,WeatherDisplay:10.37,2013-05-08 00:37:00,
2013-05-07 20:42:00,62.7,59.4,29.93,SSE,149,0.0,0.0,89,0.00,BKN,,0.04,0.0,WeatherDisplay:10.37,2013-05-08 00:42:00,
2013-05-07 20:47:00,62.5,59.2,29.93,SSE,149,0.0,0.0,89,0.00,BKN,,0.04,0.0,WeatherDisplay:10.37,2013-05-08 00:47:00,
2013-05-07 20:52:00,62.4,59.1,29.93,SSE,150,0.0,0.0,89,0.00,BKN,,0.04,0.0,WeatherDisplay:10.37,2013-05-08 00:52:00,
2013-05-07 20:57:00,62.2,58.9,29.93,SSE,150,0.0,0.0,89,0.00,BKN,,0.04,0.0,WeatherDisplay:10.37,2013-05-08 00:57:00,
2013-05-07 21:02:00,62.0,58.7,29.93,SSE,150,0.0,0.0,89,0.00,SCT,,0.04,0.0,WeatherDisplay:10.37,2013-05-08 01:02:00,
2013-05-07 21:07:00,61.7,58.7,29.93,SSE,149,1.2,0.0,90,0.00,SCT,,0.04,0.0,WeatherDisplay:10.37,2013-05-08 01:07:00,
2013-05-07 21:12:00,61.5,58.5,29.93,SSE,150,0.0,0.0,90,0.00,SCT,,0.04,0.0,WeatherDisplay:10.37,2013-05-08 01:12:00,
2013-05-07 21:17:00,61.3,58.3,29.93,SSE,150,0.0,0.0,90,0.00,SCT,,0.04,0.0,WeatherDisplay:10.37,2013-05-08 01:17:00,
2013-05-07 21:22:00,61.0,58.0,29.93,SSE,150,0.0,0.0,90,0.00,SCT,,0.04,0.0,WeatherDisplay:10.37,2013-05-08 01:22:00,
2013-05-07 21:27:00,60.8,58.2,29.94,SSE,150,0.0,0.0,91,0.00,SCT,,0.04,0.0,WeatherDisplay:10.37,2013-05-08 01:27:00,
2013-05-07 21:32:00,60.5,57.9,29.94,SSE,150,0.0,0.0,91,0.00,SCT,,0.04,0.0,WeatherDisplay:10.37,2013-05-08 01:32:00,
2013-05-07 21:37:00,60.3,58.0,29.94,SSE,147,0.0,0.0,92,0.00,SCT,,0.04,0.0,WeatherDisplay:10.37,2013-05-08 01:37:00,
2013-05-07 21:42:00,60.1,57.8,29.94,SSE,147,0.0,0.0,92,0.00,SCT,,0.04,0.0,WeatherDisplay:10.37,2013-05-08 01:42:00,
2013-05-07 21:47:00,60.0,57.7,29.94,SSE,147,0.0,0.0,92,0.00,SCT,,0.04,0.0,WeatherDisplay:10.37,2013-05-08 01:47:00,
2013-05-07 21:52:00,59.8,57.5,29.94,SSE,147,0.0,0.0,92,0.00,SCT,,0.04,0.0,WeatherDisplay:10.37,2013-05-08 01:52:00,
2013-05-07 21:57:00,59.6,57.3,29.94,SSE,148,0.0,0.0,92,0.00,SCT,,0.04,0.0,WeatherDisplay:10.37,2013-05-08 01:57:00,
2013-05-07 22:02:00,59.4,57.4,29.95,SSE,148,0.0,0.0,93,0.00,FEW,,0.04,0.0,WeatherDisplay:10.37,2013-05-08 02:02:00,
2013-05-07 22:07:00,59.2,57.2,29.95,SSE,147,0.0,0.0,93,0.00,FEW,,0.04,0.0,WeatherDisplay:10.37,2013-05-08 02:07:00,
2013-05-07 22:12:00,59.0,57.0,29.95,SSE,148,0.0,0.0,93,0.00,FEW,,0.04,0.0,WeatherDisplay:10.37,2013-05-08 02:12:00,
2013-05-07 22:17:00,58.9,57.2,29.95,SSE,147,0.0,0.0,94,0.00,FEW,,0.04,0.0,WeatherDisplay:10.37,2013-05-08 02:17:00,
2013-05-07 22:22:00,58.7,57.0,29.95,SSE,147,0.0,0.0,94,0.00,FEW,,0.04,0.0,WeatherDisplay:10.37,2013-05-08 02:22:00,
2013-05-07 22:27:00,58.6,56.9,29.95,SSE,148,0.0,0.0,94,0.00,FEW,,0.04,0.0,WeatherDisplay:10.37,2013-05-08 02:27:00,
2013-05-07 22:32:00,58.4,56.7,29.95,SSE,147,0.0,0.0,94,0.00,FEW,,0.04,0.0,WeatherDisplay:10.37,2013-05-08 02:32:00,
2013-05-07 22:37:00,58.3,56.6,29.95,SSE,147,0.0,0.0,94,0.00,FEW,,0.04,0.0,WeatherDisplay:10.37,2013-05-08 02:37:00,
2013-05-07 22:42:00,58.2,56.5,29.95,SSE,147,0.0,0.0,94,0.00,FEW,,0.04,0.0,WeatherDisplay:10.37,2013-05-08 02:42:00,
2013-05-07 22:47:00,58.1,56.7,29.95,SSE,148,0.0,0.0,95,0.00,FEW,,0.04,0.0,WeatherDisplay:10.37,2013-05-08 02:47:00,
2013-05-07 22:52:00,58.0,56.6,29.95,SSE,147,0.0,0.0,95,0.00,FEW,,0.04,0.0,WeatherDisplay:10.37,2013-05-08 02:52:00,
2013-05-07 22:57:00,57.9,56.5,29.95,SSE,148,0.0,0.0,95,0.00,FEW,,0.04,0.0,WeatherDisplay:10.37,2013-05-08 02:57:00,
2013-05-07 23:02:00,57.8,56.4,29.95,SSE,147,0.0,0.0,95,0.00,CLR,,0.04,0.0,WeatherDisplay:10.37,2013-05-08 03:02:00,
2013-05-07 23:07:00,57.8,56.4,29.95,SSE,147,0.0,0.0,95,0.00,CLR,,0.04,0.0,WeatherDisplay:10.37,2013-05-08 03:07:00,
2013-05-07 23:12:00,57.7,56.3,29.95,SSE,147,0.0,0.0,95,0.00,CLR,,0.04,0.0,WeatherDisplay:10.37,2013-05-08 03:12:00,
2013-05-07 23:17:00,57.7,56.6,29.95,SSE,147,0.0,0.0,96,0.00,CLR,,0.04,0.0,WeatherDisplay:10.37,2013-05-08 03:17:00,
2013-05-07 23:22:00,57.6,56.5,29.95,SSE,147,0.0,0.0,96,0.00,CLR,,0.04,0.0,WeatherDisplay:10.37,2013-05-08 03:22:00,
2013-05-07 23:27:00,57.6,56.5,29.96,SSE,147,0.0,0.0,96,0.00,CLR,,0.04,0.0,WeatherDisplay:10.37,2013-05-08 03:27:00,
2013-05-07 23:32:00,57.5,56.4,29.96,SSE,148,0.0,0.0,96,0.00,CLR,,0.04,0.0,WeatherDisplay:10.37,2013-05-08 03:32:00,
2013-05-07 23:37:00,57.4,56.3,29.96,SSE,147,0.0,0.0,96,0.00,CLR,,0.04,0.0,WeatherDisplay:10.37,2013-05-08 03:37:00,
2013-05-07 23:42:00,57.3,56.2,29.96,SSE,148,0.0,0.0,96,0.00,CLR,,0.04,0.0,WeatherDisplay:10.37,2013-05-08 03:42:00,
2013-05-07 23:47:00,57.2,56.1,29.96,SSE,147,0.0,0.0,96,0.00,CLR,,0.04,0.0,WeatherDisplay:10.37,2013-05-08 03:47:00,
2013-05-07 23:52:00,57.1,56.0,29.96,SSE,148,0.0,0.0,96,0.00,CLR,,0.04,0.0,WeatherDisplay:10.37,2013-05-08 03:52:00,
2013-05-07 23:57:00,57.0,55.9,29.95,SSE,147,0.0,0.0,96,0.00,CLR,,0.04,0.0,WeatherDisplay:10.37,2013-05-08 03:57:00,